owner,sensor,date,latitude,longitude,vertical_datum,wind_speed,wind_to_direction,wind_speed_of_gust,qcFlag 
ADCP,ioos:station:wmo:42362:1,2012-11-01T00:30:00Z,27.7950,-90.6480,122.0,9.0,242.0,99.0,'11111222,11111222,11144222' 
ADCP,ioos:station:wmo:42362:1,2012-11-01T01:30:00Z,27.7950,-90.6480,122.0,9.1,238.0,99.0,'11111222,11111222,11144222' 
ADCP,ioos:station:wmo:42362:1,2012-11-01T02:30:00Z,27.7950,-90.6480,122.0,9.1,237.0,99.0,'11111222,11111222,11144222' 
ADCP,ioos:station:wmo:42362:1,2012-11-01T03:30:00Z,27.7950,-90.6480,122.0,9.9,246.0,99.0,'11111222,11111222,11144222' 
ADCP,ioos:station:wmo:42362:1,2012-11-01T04:30:00Z,27.7950,-90.6480,122.0,9.8,242.0,99.0,'11111222,11111222,11144222' 
ADCP,ioos:station:wmo:42362:1,2012-11-01T05:30:00Z,27.7950,-90.6480,122.0,9.6,251.0,99.0,'11111222,11111222,11144222' 
ADCP,ioos:station:wmo:42362:1,2012-11-01T06:30:00Z,27.7950,-90.6480,122.0,10.0,249.0,99.0,'11111222,11111222,11144222' 
ADCP,ioos:station:wmo:42362:1,2012-11-01T07:30:00Z,27.7950,-90.6480,122.0,10.5,251.0,99.0,'11111222,11111222,11144222' 
ADCP,ioos:station:wmo:42362:1,2012-11-01T08:30:00Z,27.7950,-90.6480,122.0,8.4,267.0,99.0,'11111222,11111222,11144222' 
ADCP,ioos:station:wmo:42362:1,2012-11-01T09:30:00Z,27.7950,-90.6480,122.0,7.4,272.0,99.0,'11111222,11111222,11144222' 
ADCP,ioos:station:wmo:42362:1,2012-11-01T10:30:00Z,27.7950,-90.6480,122.0,7.8,266.0,99.0,'11111222,11111222,11144222' 
ADCP,ioos:station:wmo:42362:1,2012-11-01T11:30:00Z,27.7950,-90.6480,122.0,5.8,256.0,99.0,'11111222,11111222,11144222' 
ADCP,ioos:station:wmo:42362:1,2012-11-01T12:30:00Z,27.7950,-90.6480,122.0,5.3,283.0,99.0,'11111222,11111222,11144222' 
ADCP,ioos:station:wmo:42362:1,2012-11-01T13:30:00Z,27.7950,-90.6480,122.0,4.5,304.0,99.0,'11111222,11111222,11144222' 
ADCP,ioos:station:wmo:42362:1,2012-11-01T14:30:00Z,27.7950,-90.6480,122.0,4.3,322.0,99.0,'11111222,11111222,11144222' 
ADCP,ioos:station:wmo:42362:1,2012-11-01T15:30:00Z,27.7950,-90.6480,122.0,5.1,329.0,99.0,'11111222,11111222,11144222' 
ADCP,ioos:station:wmo:42362:1,2012-11-01T16:30:00Z,27.7950,-90.6480,122.0,4.2,326.0,99.0,'11111222,11111222,11144222' 
ADCP,ioos:station:wmo:42362:1,2012-11-01T17:30:00Z,27.7950,-90.6480,122.0,3.7,343.0,99.0,'11111222,11111222,11144222' 
ADCP,ioos:station:wmo:42362:1,2012-11-01T18:30:00Z,27.7950,-90.6480,122.0,5.1,350.0,99.0,'11111222,11111222,11144222' 
ADCP,ioos:station:wmo:42362:1,2012-11-01T19:30:00Z,27.7950,-90.6480,122.0,5.0,354.0,99.0,'11111222,11111222,11144222' 
ADCP,ioos:station:wmo:42362:1,2012-11-01T20:30:00Z,27.7950,-90.6480,122.0,4.3,355.0,99.0,'11111222,11111222,11144222' 
ADCP,ioos:station:wmo:42362:1,2012-11-01T21:30:00Z,27.7950,-90.6480,122.0,4.3,356.0,99.0,'11111222,11111222,11144222' 
ADCP,ioos:station:wmo:42362:1,2012-11-01T22:30:00Z,27.7950,-90.6480,122.0,3.2,351.0,99.0,'11111222,11111222,11144222' 
ADCP,ioos:station:wmo:42362:1,2012-11-01T23:30:00Z,27.7950,-90.6480,122.0,2.4,342.0,99.0,'11111222,11111222,11144222' 
ADCP,ioos:station:wmo:42362:1,2012-11-02T00:30:00Z,27.7950,-90.6480,122.0,2.2,347.0,99.0,'11111222,11111222,11144222' 
ADCP,ioos:station:wmo:42362:1,2012-11-02T01:30:00Z,27.7950,-90.6480,122.0,1.7,348.0,99.0,'11111222,11111222,11144222' 
ADCP,ioos:station:wmo:42362:1,2012-11-02T02:30:00Z,27.7950,-90.6480,122.0,0.6,351.0,99.0,'11111222,11111222,11144222' 
ADCP,ioos:station:wmo:42362:1,2012-11-02T03:30:00Z,27.7950,-90.6480,122.0,0.5,343.0,99.0,'11111222,11111222,11144222' 
ADCP,ioos:station:wmo:42362:1,2012-11-02T04:30:00Z,27.7950,-90.6480,122.0,0.2,351.0,99.0,'11111222,11111222,11144222' 
ADCP,ioos:station:wmo:42362:1,2012-11-02T05:30:00Z,27.7950,-90.6480,122.0,0.2,343.0,99.0,'11111222,11111222,11144222' 
ADCP,ioos:station:wmo:42362:1,2012-11-02T06:30:00Z,27.7950,-90.6480,122.0,0.3,325.0,99.0,'11111222,11111222,11144222' 
ADCP,ioos:station:wmo:42362:1,2012-11-02T07:30:00Z,27.7950,-90.6480,122.0,1.6,234.0,99.0,'11111222,11111222,11144222' 
ADCP,ioos:station:wmo:42362:1,2012-11-02T08:30:00Z,27.7950,-90.6480,122.0,3.5,212.0,99.0,'11111222,11111222,11144222' 
ADCP,ioos:station:wmo:42362:1,2012-11-02T09:30:00Z,27.7950,-90.6480,122.0,4.4,211.0,99.0,'11111222,11111222,11144222' 
ADCP,ioos:station:wmo:42362:1,2012-11-02T10:30:00Z,27.7950,-90.6480,122.0,4.1,213.0,99.0,'11111222,11111222,11144222' 
ADCP,ioos:station:wmo:42362:1,2012-11-02T11:30:00Z,27.7950,-90.6480,122.0,3.8,218.0,99.0,'11111222,11111222,11144222' 
ADCP,ioos:station:wmo:42362:1,2012-11-02T12:30:00Z,27.7950,-90.6480,122.0,3.4,235.0,99.0,'11111222,11111222,11144222' 
ADCP,ioos:station:wmo:42362:1,2012-11-02T13:30:00Z,27.7950,-90.6480,122.0,2.6,234.0,99.0,'11111222,11111222,11144222' 
ADCP,ioos:station:wmo:42362:1,2012-11-02T14:30:00Z,27.7950,-90.6480,122.0,1.9,224.0,99.0,'11111222,11111222,11144222' 
ADCP,ioos:station:wmo:42362:1,2012-11-02T15:30:00Z,27.7950,-90.6480,122.0,2.6,219.0,99.0,'11111222,11111222,11144222' 
ADCP,ioos:station:wmo:42362:1,2012-11-02T16:30:00Z,27.7950,-90.6480,122.0,2.7,222.0,99.0,'11111222,11111222,11144222' 
ADCP,ioos:station:wmo:42362:1,2012-11-02T17:30:00Z,27.7950,-90.6480,122.0,2.5,223.0,99.0,'11111222,11111222,11144222' 
ADCP,ioos:station:wmo:42362:1,2012-11-02T18:30:00Z,27.7950,-90.6480,122.0,2.6,236.0,99.0,'11111222,11111222,11144222' 
ADCP,ioos:station:wmo:42362:1,2012-11-02T19:30:00Z,27.7950,-90.6480,122.0,2.5,233.0,99.0,'11111222,11111222,11144222' 
ADCP,ioos:station:wmo:42362:1,2012-11-02T20:30:00Z,27.7950,-90.6480,122.0,1.0,287.0,99.0,'11111222,11111222,11144222' 
ADCP,ioos:station:wmo:42362:1,2012-11-02T21:30:00Z,27.7950,-90.6480,122.0,1.7,232.0,99.0,'11111222,11111222,11144222' 
ADCP,ioos:station:wmo:42362:1,2012-11-02T22:30:00Z,27.7950,-90.6480,122.0,1.3,253.0,99.0,'11111222,11111222,11144222' 
ADCP,ioos:station:wmo:42362:1,2012-11-02T23:30:00Z,27.7950,-90.6480,122.0,1.5,252.0,99.0,'11111222,11111222,11144222' 
ADCP,ioos:station:wmo:42362:1,2012-11-03T00:30:00Z,27.7950,-90.6480,122.0,1.3,205.0,99.0,'11111222,11111222,11144222' 
ADCP,ioos:station:wmo:42362:1,2012-11-03T01:30:00Z,27.7950,-90.6480,122.0,1.5,182.0,99.0,'11111222,11111222,11144222' 
ADCP,ioos:station:wmo:42362:1,2012-11-03T02:30:00Z,27.7950,-90.6480,122.0,2.2,158.0,99.0,'11111222,11111222,11144222' 
ADCP,ioos:station:wmo:42362:1,2012-11-03T03:30:00Z,27.7950,-90.6480,122.0,2.4,167.0,99.0,'11111222,11111222,11144222' 
ADCP,ioos:station:wmo:42362:1,2012-11-03T04:30:00Z,27.7950,-90.6480,122.0,3.6,168.0,99.0,'11111222,11111222,11144222' 
ADCP,ioos:station:wmo:42362:1,2012-11-03T05:30:00Z,27.7950,-90.6480,122.0,4.4,178.0,99.0,'11111222,11111222,11144222' 
ADCP,ioos:station:wmo:42362:1,2012-11-03T06:30:00Z,27.7950,-90.6480,122.0,4.7,185.0,99.0,'11111222,11111222,11144222' 
ADCP,ioos:station:wmo:42362:1,2012-11-03T07:30:00Z,27.7950,-90.6480,122.0,4.1,186.0,99.0,'11111222,11111222,11144222' 
ADCP,ioos:station:wmo:42362:1,2012-11-03T08:30:00Z,27.7950,-90.6480,122.0,3.8,187.0,99.0,'11111222,11111222,11144222' 
ADCP,ioos:station:wmo:42362:1,2012-11-03T09:30:00Z,27.7950,-90.6480,122.0,4.0,180.0,99.0,'11111222,11111222,11144222' 
ADCP,ioos:station:wmo:42362:1,2012-11-03T10:30:00Z,27.7950,-90.6480,122.0,3.6,178.0,99.0,'11111222,11111222,11144222' 
ADCP,ioos:station:wmo:42362:1,2012-11-03T11:30:00Z,27.7950,-90.6480,122.0,3.7,178.0,99.0,'11111222,11111222,11144222' 
ADCP,ioos:station:wmo:42362:1,2012-11-03T12:30:00Z,27.7950,-90.6480,122.0,3.5,169.0,99.0,'11111222,11111222,11144222' 
ADCP,ioos:station:wmo:42362:1,2012-11-03T13:30:00Z,27.7950,-90.6480,122.0,3.5,170.0,99.0,'11111222,11111222,11144222' 
ADCP,ioos:station:wmo:42362:1,2012-11-03T14:30:00Z,27.7950,-90.6480,122.0,3.8,163.0,99.0,'11111222,11111222,11144222' 
ADCP,ioos:station:wmo:42362:1,2012-11-03T15:30:00Z,27.7950,-90.6480,122.0,3.5,156.0,99.0,'11111222,11111222,11144222' 
ADCP,ioos:station:wmo:42362:1,2012-11-03T16:30:00Z,27.7950,-90.6480,122.0,3.9,151.0,99.0,'11111222,11111222,11144222' 
ADCP,ioos:station:wmo:42362:1,2012-11-03T17:30:00Z,27.7950,-90.6480,122.0,4.0,149.0,99.0,'11111222,11111222,11144222' 
ADCP,ioos:station:wmo:42362:1,2012-11-03T18:30:00Z,27.7950,-90.6480,122.0,4.6,146.0,99.0,'11111222,11111222,11144222' 
ADCP,ioos:station:wmo:42362:1,2012-11-03T19:30:00Z,27.7950,-90.6480,122.0,4.7,144.0,99.0,'11111222,11111222,11144222' 
ADCP,ioos:station:wmo:42362:1,2012-11-03T20:30:00Z,27.7950,-90.6480,122.0,4.6,148.0,99.0,'11111222,11111222,11144222' 
ADCP,ioos:station:wmo:42362:1,2012-11-03T21:30:00Z,27.7950,-90.6480,122.0,4.2,151.0,99.0,'11111222,11111222,11144222' 
ADCP,ioos:station:wmo:42362:1,2012-11-03T22:30:00Z,27.7950,-90.6480,122.0,3.8,144.0,99.0,'11111222,11111222,11144222' 
ADCP,ioos:station:wmo:42362:1,2012-11-03T23:30:00Z,27.7950,-90.6480,122.0,4.2,146.0,99.0,'11111222,11111222,11144222' 
ADCP,ioos:station:wmo:42362:1,2012-11-04T00:30:00Z,27.7950,-90.6480,122.0,4.2,146.0,99.0,'11111222,11111222,11144222' 
ADCP,ioos:station:wmo:42362:1,2012-11-04T01:30:00Z,27.7950,-90.6480,122.0,4.1,146.0,99.0,'11111222,11111222,11144222' 
ADCP,ioos:station:wmo:42362:1,2012-11-04T02:30:00Z,27.7950,-90.6480,122.0,4.3,140.0,99.0,'11111222,11111222,11144222' 
ADCP,ioos:station:wmo:42362:1,2012-11-04T03:30:00Z,27.7950,-90.6480,122.0,4.9,138.0,99.0,'11111222,11111222,11144222' 
ADCP,ioos:station:wmo:42362:1,2012-11-04T04:30:00Z,27.7950,-90.6480,122.0,5.1,143.0,99.0,'11111222,11111222,11144222' 
ADCP,ioos:station:wmo:42362:1,2012-11-04T05:30:00Z,27.7950,-90.6480,122.0,5.6,151.0,99.0,'11111222,11111222,11144222' 
ADCP,ioos:station:wmo:42362:1,2012-11-04T06:30:00Z,27.7950,-90.6480,122.0,5.5,155.0,99.0,'11111222,11111222,11144222' 
ADCP,ioos:station:wmo:42362:1,2012-11-04T07:30:00Z,27.7950,-90.6480,122.0,5.4,161.0,99.0,'11111222,11111222,11144222' 
ADCP,ioos:station:wmo:42362:1,2012-11-04T08:30:00Z,27.7950,-90.6480,122.0,4.9,167.0,99.0,'11111222,11111222,11144222' 
ADCP,ioos:station:wmo:42362:1,2012-11-04T09:30:00Z,27.7950,-90.6480,122.0,4.7,166.0,99.0,'11111222,11111222,11144222' 
ADCP,ioos:station:wmo:42362:1,2012-11-04T10:30:00Z,27.7950,-90.6480,122.0,5.2,167.0,99.0,'11111222,11111222,11144222' 
ADCP,ioos:station:wmo:42362:1,2012-11-04T11:30:00Z,27.7950,-90.6480,122.0,5.7,172.0,99.0,'11111222,11111222,11144222' 
ADCP,ioos:station:wmo:42362:1,2012-11-04T12:30:00Z,27.7950,-90.6480,122.0,5.2,178.0,99.0,'11111222,11111222,11144222' 
ADCP,ioos:station:wmo:42362:1,2012-11-04T13:30:00Z,27.7950,-90.6480,122.0,4.5,177.0,99.0,'11111222,11111222,11144222' 
ADCP,ioos:station:wmo:42362:1,2012-11-04T14:30:00Z,27.7950,-90.6480,122.0,4.7,169.0,99.0,'11111222,11111222,11144222' 
ADCP,ioos:station:wmo:42362:1,2012-11-04T15:30:00Z,27.7950,-90.6480,122.0,4.0,173.0,99.0,'11111222,11111222,11144222' 
ADCP,ioos:station:wmo:42362:1,2012-11-04T16:30:00Z,27.7950,-90.6480,122.0,3.5,171.0,99.0,'11111222,11111222,11144222' 
ADCP,ioos:station:wmo:42362:1,2012-11-04T17:30:00Z,27.7950,-90.6480,122.0,4.5,162.0,99.0,'11111222,11111222,11144222' 
ADCP,ioos:station:wmo:42362:1,2012-11-04T18:30:00Z,27.7950,-90.6480,122.0,4.5,181.0,99.0,'11111222,11111222,11144222' 
ADCP,ioos:station:wmo:42362:1,2012-11-04T19:30:00Z,27.7950,-90.6480,122.0,4.4,192.0,99.0,'11111222,11111222,11144222' 
ADCP,ioos:station:wmo:42362:1,2012-11-04T20:30:00Z,27.7950,-90.6480,122.0,5.4,218.0,99.0,'11111222,11111222,11144222' 
ADCP,ioos:station:wmo:42362:1,2012-11-04T21:30:00Z,27.7950,-90.6480,122.0,1.4,263.0,99.0,'11111222,11111222,11144222' 
ADCP,ioos:station:wmo:42362:1,2012-11-04T22:30:00Z,27.7950,-90.6480,122.0,2.9,356.0,99.0,'11111222,11111222,11144222' 
ADCP,ioos:station:wmo:42362:1,2012-11-04T23:30:00Z,27.7950,-90.6480,122.0,3.9,69.0,99.0,'11111222,11111222,11144222' 
ADCP,ioos:station:wmo:42362:1,2012-11-05T00:30:00Z,27.7950,-90.6480,122.0,6.7,119.0,99.0,'11111222,11111222,11144222' 
ADCP,ioos:station:wmo:42362:1,2012-11-05T01:30:00Z,27.7950,-90.6480,122.0,3.8,106.0,99.0,'11111222,11111222,11144222' 
ADCP,ioos:station:wmo:42362:1,2012-11-05T02:30:00Z,27.7950,-90.6480,122.0,3.4,136.0,99.0,'11111222,11111222,11144222' 
ADCP,ioos:station:wmo:42362:1,2012-11-05T03:30:00Z,27.7950,-90.6480,122.0,3.7,186.0,99.0,'11111222,11111222,11144222' 
ADCP,ioos:station:wmo:42362:1,2012-11-05T04:30:00Z,27.7950,-90.6480,122.0,2.9,202.0,99.0,'11111222,11111222,11144222' 
ADCP,ioos:station:wmo:42362:1,2012-11-05T05:30:00Z,27.7950,-90.6480,122.0,2.5,223.0,99.0,'11111222,11111222,11144222' 
ADCP,ioos:station:wmo:42362:1,2012-11-05T06:30:00Z,27.7950,-90.6480,122.0,1.8,260.0,99.0,'11111222,11111222,11144222' 
ADCP,ioos:station:wmo:42362:1,2012-11-05T07:30:00Z,27.7950,-90.6480,122.0,1.9,251.0,99.0,'11111222,11111222,11144222' 
ADCP,ioos:station:wmo:42362:1,2012-11-05T08:30:00Z,27.7950,-90.6480,122.0,1.3,290.0,99.0,'11111222,11111222,11144222' 
ADCP,ioos:station:wmo:42362:1,2012-11-05T09:30:00Z,27.7950,-90.6480,122.0,0.7,337.0,99.0,'11111222,11111222,11144222' 
ADCP,ioos:station:wmo:42362:1,2012-11-05T10:30:00Z,27.7950,-90.6480,122.0,1.6,341.0,99.0,'11111222,11111222,11144222' 
ADCP,ioos:station:wmo:42362:1,2012-11-05T11:30:00Z,27.7950,-90.6480,122.0,2.1,328.0,99.0,'11111222,11111222,11144222' 
ADCP,ioos:station:wmo:42362:1,2012-11-05T12:30:00Z,27.7950,-90.6480,122.0,2.2,331.0,99.0,'11111222,11111222,11144222' 
ADCP,ioos:station:wmo:42362:1,2012-11-05T13:30:00Z,27.7950,-90.6480,122.0,3.7,355.0,99.0,'11111222,11111222,11144222' 
ADCP,ioos:station:wmo:42362:1,2012-11-05T14:30:00Z,27.7950,-90.6480,122.0,4.8,5.0,99.0,'11111222,11111222,11144222' 
ADCP,ioos:station:wmo:42362:1,2012-11-05T15:30:00Z,27.7950,-90.6480,122.0,5.8,14.0,99.0,'11111222,11111222,11144222' 
ADCP,ioos:station:wmo:42362:1,2012-11-05T16:30:00Z,27.7950,-90.6480,122.0,6.4,23.0,99.0,'11111222,11111222,11144222' 
ADCP,ioos:station:wmo:42362:1,2012-11-05T17:30:00Z,27.7950,-90.6480,122.0,5.6,26.0,99.0,'11111222,11111222,11144222' 
ADCP,ioos:station:wmo:42362:1,2012-11-05T18:30:00Z,27.7950,-90.6480,122.0,3.8,34.0,99.0,'11111222,11111222,11144222' 
ADCP,ioos:station:wmo:42362:1,2012-11-05T19:30:00Z,27.7950,-90.6480,122.0,3.2,26.0,99.0,'11111222,11111222,11144222' 
ADCP,ioos:station:wmo:42362:1,2012-11-05T20:30:00Z,27.7950,-90.6480,122.0,2.4,36.0,99.0,'11111222,11111222,11144222' 
ADCP,ioos:station:wmo:42362:1,2012-11-05T21:30:00Z,27.7950,-90.6480,122.0,0.6,16.0,99.0,'11111222,11111222,11144222' 
ADCP,ioos:station:wmo:42362:1,2012-11-05T22:30:00Z,27.7950,-90.6480,122.0,0.0,0.0,99.0,'11111222,11111222,11144222' 
ADCP,ioos:station:wmo:42362:1,2012-11-05T23:30:00Z,27.7950,-90.6480,122.0,0.3,348.0,99.0,'11111222,11111222,11144222' 
ADCP,ioos:station:wmo:42362:1,2012-11-06T00:30:00Z,27.7950,-90.6480,122.0,1.4,295.0,99.0,'11111222,11111222,11144222' 
ADCP,ioos:station:wmo:42362:1,2012-11-06T01:30:00Z,27.7950,-90.6480,122.0,2.5,259.0,99.0,'11111222,11111222,11144222' 
ADCP,ioos:station:wmo:42362:1,2012-11-06T02:30:00Z,27.7950,-90.6480,122.0,3.5,253.0,99.0,'11111222,11111222,11144222' 
ADCP,ioos:station:wmo:42362:1,2012-11-06T03:30:00Z,27.7950,-90.6480,122.0,4.7,254.0,99.0,'11111222,11111222,11144222' 
ADCP,ioos:station:wmo:42362:1,2012-11-06T04:30:00Z,27.7950,-90.6480,122.0,5.8,255.0,99.0,'11111222,11111222,11144222' 
ADCP,ioos:station:wmo:42362:1,2012-11-06T05:30:00Z,27.7950,-90.6480,122.0,6.5,255.0,99.0,'11111222,11111222,11144222' 
ADCP,ioos:station:wmo:42362:1,2012-11-06T06:30:00Z,27.7950,-90.6480,122.0,7.7,251.0,99.0,'11111222,11111222,11144222' 
ADCP,ioos:station:wmo:42362:1,2012-11-06T07:30:00Z,27.7950,-90.6480,122.0,8.4,264.0,99.0,'11111222,11111222,11144222' 
ADCP,ioos:station:wmo:42362:1,2012-11-06T08:30:00Z,27.7950,-90.6480,122.0,5.7,327.0,99.0,'11111222,11111222,11144222' 
ADCP,ioos:station:wmo:42362:1,2012-11-06T09:30:00Z,27.7950,-90.6480,122.0,3.1,331.0,99.0,'11111222,11111222,11144222' 
ADCP,ioos:station:wmo:42362:1,2012-11-06T10:30:00Z,27.7950,-90.6480,122.0,4.5,328.0,99.0,'11111222,11111222,11144222' 
ADCP,ioos:station:wmo:42362:1,2012-11-06T11:30:00Z,27.7950,-90.6480,122.0,10.0,348.0,99.0,'11111222,11111222,11144222' 
ADCP,ioos:station:wmo:42362:1,2012-11-06T12:30:00Z,27.7950,-90.6480,122.0,10.5,354.0,99.0,'11111222,11111222,11144222' 
ADCP,ioos:station:wmo:42362:1,2012-11-06T13:30:00Z,27.7950,-90.6480,122.0,10.3,356.0,99.0,'11111222,11111222,11144222' 
ADCP,ioos:station:wmo:42362:1,2012-11-06T14:30:00Z,27.7950,-90.6480,122.0,9.9,359.0,99.0,'11111222,11111222,11144222' 
ADCP,ioos:station:wmo:42362:1,2012-11-06T15:30:00Z,27.7950,-90.6480,122.0,9.2,354.0,99.0,'11111222,11111222,11144222' 
ADCP,ioos:station:wmo:42362:1,2012-11-06T16:30:00Z,27.7950,-90.6480,122.0,8.8,356.0,99.0,'11111222,11111222,11144222' 
ADCP,ioos:station:wmo:42362:1,2012-11-06T17:30:00Z,27.7950,-90.6480,122.0,8.6,345.0,99.0,'11111222,11111222,11144222' 
ADCP,ioos:station:wmo:42362:1,2012-11-06T18:30:00Z,27.7950,-90.6480,122.0,7.6,335.0,99.0,'11111222,11111222,11144222' 
ADCP,ioos:station:wmo:42362:1,2012-11-06T19:30:00Z,27.7950,-90.6480,122.0,6.9,324.0,99.0,'11111222,11111222,11144222' 
ADCP,ioos:station:wmo:42362:1,2012-11-06T20:30:00Z,27.7950,-90.6480,122.0,5.9,323.0,99.0,'11111222,11111222,11144222' 
ADCP,ioos:station:wmo:42362:1,2012-11-06T21:30:00Z,27.7950,-90.6480,122.0,6.0,323.0,99.0,'11111222,11111222,11144222' 
ADCP,ioos:station:wmo:42362:1,2012-11-06T22:30:00Z,27.7950,-90.6480,122.0,7.3,337.0,99.0,'11111222,11111222,11144222' 
ADCP,ioos:station:wmo:42362:1,2012-11-06T23:30:00Z,27.7950,-90.6480,122.0,8.7,343.0,99.0,'11111222,11111222,11144222' 
ADCP,ioos:station:wmo:42362:1,2012-11-07T00:30:00Z,27.7950,-90.6480,122.0,9.4,343.0,99.0,'11111222,11111222,11144222' 
ADCP,ioos:station:wmo:42362:1,2012-11-07T01:30:00Z,27.7950,-90.6480,122.0,8.1,342.0,99.0,'11111222,11111222,11144222' 
ADCP,ioos:station:wmo:42362:1,2012-11-07T02:30:00Z,27.7950,-90.6480,122.0,8.6,352.0,99.0,'11111222,11111222,11144222' 
ADCP,ioos:station:wmo:42362:1,2012-11-07T03:30:00Z,27.7950,-90.6480,122.0,7.9,357.0,99.0,'11111222,11111222,11144222' 
ADCP,ioos:station:wmo:42362:1,2012-11-07T04:30:00Z,27.7950,-90.6480,122.0,7.5,354.0,99.0,'11111222,11111222,11144222' 
ADCP,ioos:station:wmo:42362:1,2012-11-07T05:30:00Z,27.7950,-90.6480,122.0,7.6,347.0,99.0,'11111222,11111222,11144222' 
ADCP,ioos:station:wmo:42362:1,2012-11-07T06:30:00Z,27.7950,-90.6480,122.0,8.0,356.0,99.0,'11111222,11111222,11144222' 
ADCP,ioos:station:wmo:42362:1,2012-11-07T07:30:00Z,27.7950,-90.6480,122.0,8.3,356.0,99.0,'11111222,11111222,11144222' 
ADCP,ioos:station:wmo:42362:1,2012-11-07T08:30:00Z,27.7950,-90.6480,122.0,8.8,357.0,99.0,'11111222,11111222,11144222' 
ADCP,ioos:station:wmo:42362:1,2012-11-07T09:30:00Z,27.7950,-90.6480,122.0,9.3,357.0,99.0,'11111222,11111222,11144222' 
ADCP,ioos:station:wmo:42362:1,2012-11-07T10:30:00Z,27.7950,-90.6480,122.0,9.8,359.0,99.0,'11111222,11111222,11144222' 
ADCP,ioos:station:wmo:42362:1,2012-11-07T11:30:00Z,27.7950,-90.6480,122.0,10.1,356.0,99.0,'11111222,11111222,11144222' 
ADCP,ioos:station:wmo:42362:1,2012-11-07T12:30:00Z,27.7950,-90.6480,122.0,8.9,354.0,99.0,'11111222,11111222,11144222' 
ADCP,ioos:station:wmo:42362:1,2012-11-07T13:30:00Z,27.7950,-90.6480,122.0,8.7,358.0,99.0,'11111222,11111222,11144222' 
ADCP,ioos:station:wmo:42362:1,2012-11-07T14:30:00Z,27.7950,-90.6480,122.0,7.9,359.0,99.0,'11111222,11111222,11144222' 
ADCP,ioos:station:wmo:42362:1,2012-11-07T15:30:00Z,27.7950,-90.6480,122.0,7.1,360.0,99.0,'11111222,11144222,11144222' 
ADCP,ioos:station:wmo:42362:1,2012-11-07T16:30:00Z,27.7950,-90.6480,122.0,6.6,356.0,99.0,'11111222,11111222,11144222' 
ADCP,ioos:station:wmo:42362:1,2012-11-07T17:30:00Z,27.7950,-90.6480,122.0,5.8,352.0,99.0,'11111222,11111222,11144222' 
ADCP,ioos:station:wmo:42362:1,2012-11-07T18:30:00Z,27.7950,-90.6480,122.0,5.5,341.0,99.0,'11111222,11111222,11144222' 
ADCP,ioos:station:wmo:42362:1,2012-11-07T19:30:00Z,27.7950,-90.6480,122.0,5.5,325.0,99.0,'11111222,11111222,11144222' 
ADCP,ioos:station:wmo:42362:1,2012-11-07T20:30:00Z,27.7950,-90.6480,122.0,5.6,308.0,99.0,'11111222,11111222,11144222' 
ADCP,ioos:station:wmo:42362:1,2012-11-07T21:30:00Z,27.7950,-90.6480,122.0,6.0,298.0,99.0,'11111222,11111222,11144222' 
ADCP,ioos:station:wmo:42362:1,2012-11-07T22:30:00Z,27.7950,-90.6480,122.0,8.3,311.0,99.0,'11111222,11111222,11144222' 
ADCP,ioos:station:wmo:42362:1,2012-11-07T23:30:00Z,27.7950,-90.6480,122.0,9.1,320.0,99.0,'11111222,11111222,11144222' 
ADCP,ioos:station:wmo:42362:1,2012-11-08T00:30:00Z,27.7950,-90.6480,122.0,8.7,322.0,99.0,'11111222,11111222,11144222' 
ADCP,ioos:station:wmo:42362:1,2012-11-08T01:30:00Z,27.7950,-90.6480,122.0,7.8,325.0,99.0,'11111222,11111222,11144222' 
ADCP,ioos:station:wmo:42362:1,2012-11-08T02:30:00Z,27.7950,-90.6480,122.0,8.3,334.0,99.0,'11111222,11111222,11144222' 
ADCP,ioos:station:wmo:42362:1,2012-11-08T03:30:00Z,27.7950,-90.6480,122.0,9.1,336.0,99.0,'11111222,11111222,11144222' 
ADCP,ioos:station:wmo:42362:1,2012-11-08T04:30:00Z,27.7950,-90.6480,122.0,9.8,343.0,99.0,'11111222,11111222,11144222' 
ADCP,ioos:station:wmo:42362:1,2012-11-08T05:30:00Z,27.7950,-90.6480,122.0,10.1,352.0,99.0,'11111222,11111222,11144222' 
ADCP,ioos:station:wmo:42362:1,2012-11-08T06:30:00Z,27.7950,-90.6480,122.0,9.5,5.0,99.0,'11111222,11111222,11144222' 
ADCP,ioos:station:wmo:42362:1,2012-11-08T07:30:00Z,27.7950,-90.6480,122.0,9.4,13.0,99.0,'11111222,11111222,11144222' 
ADCP,ioos:station:wmo:42362:1,2012-11-08T08:30:00Z,27.7950,-90.6480,122.0,8.7,17.0,99.0,'11111222,11111222,11144222' 
ADCP,ioos:station:wmo:42362:1,2012-11-08T09:30:00Z,27.7950,-90.6480,122.0,8.3,18.0,99.0,'11111222,11111222,11144222' 
ADCP,ioos:station:wmo:42362:1,2012-11-08T10:30:00Z,27.7950,-90.6480,122.0,8.2,26.0,99.0,'11111222,11111222,11144222' 
ADCP,ioos:station:wmo:42362:1,2012-11-08T11:30:00Z,27.7950,-90.6480,122.0,7.6,25.0,99.0,'11111222,11111222,11144222' 
ADCP,ioos:station:wmo:42362:1,2012-11-08T12:30:00Z,27.7950,-90.6480,122.0,7.3,24.0,99.0,'11111222,11111222,11144222' 
ADCP,ioos:station:wmo:42362:1,2012-11-08T13:30:00Z,27.7950,-90.6480,122.0,7.4,29.0,99.0,'11111222,11111222,11144222' 
ADCP,ioos:station:wmo:42362:1,2012-11-08T14:30:00Z,27.7950,-90.6480,122.0,7.1,36.0,99.0,'11111222,11111222,11144222' 
ADCP,ioos:station:wmo:42362:1,2012-11-08T15:30:00Z,27.7950,-90.6480,122.0,5.8,36.0,99.0,'11111222,11111222,11144222' 
ADCP,ioos:station:wmo:42362:1,2012-11-08T16:30:00Z,27.7950,-90.6480,122.0,6.3,31.0,99.0,'11111222,11111222,11144222' 
ADCP,ioos:station:wmo:42362:1,2012-11-08T17:30:00Z,27.7950,-90.6480,122.0,6.0,30.0,99.0,'11111222,11111222,11144222' 
ADCP,ioos:station:wmo:42362:1,2012-11-08T18:30:00Z,27.7950,-90.6480,122.0,6.4,22.0,99.0,'11111222,11111222,11144222' 
ADCP,ioos:station:wmo:42362:1,2012-11-08T19:30:00Z,27.7950,-90.6480,122.0,6.4,20.0,99.0,'11111222,11111222,11144222' 
ADCP,ioos:station:wmo:42362:1,2012-11-08T20:30:00Z,27.7950,-90.6480,122.0,6.5,31.0,99.0,'11111222,11111222,11144222' 
ADCP,ioos:station:wmo:42362:1,2012-11-08T21:30:00Z,27.7950,-90.6480,122.0,6.4,40.0,99.0,'11111222,11111222,11144222' 
ADCP,ioos:station:wmo:42362:1,2012-11-08T22:30:00Z,27.7950,-90.6480,122.0,6.7,49.0,99.0,'11111222,11111222,11144222' 
ADCP,ioos:station:wmo:42362:1,2012-11-08T23:30:00Z,27.7950,-90.6480,122.0,6.7,53.0,99.0,'11111222,11111222,11144222' 
ADCP,ioos:station:wmo:42362:1,2012-11-09T00:30:00Z,27.7950,-90.6480,122.0,6.5,57.0,99.0,'11111222,11111222,11144222' 
ADCP,ioos:station:wmo:42362:1,2012-11-09T01:30:00Z,27.7950,-90.6480,122.0,6.1,61.0,99.0,'11111222,11111222,11144222' 
ADCP,ioos:station:wmo:42362:1,2012-11-09T02:30:00Z,27.7950,-90.6480,122.0,5.7,62.0,99.0,'11111222,11111222,11144222' 
ADCP,ioos:station:wmo:42362:1,2012-11-09T03:30:00Z,27.7950,-90.6480,122.0,5.0,66.0,99.0,'11111222,11111222,11144222' 
ADCP,ioos:station:wmo:42362:1,2012-11-09T04:30:00Z,27.7950,-90.6480,122.0,4.9,71.0,99.0,'11111222,11111222,11144222' 
ADCP,ioos:station:wmo:42362:1,2012-11-09T05:30:00Z,27.7950,-90.6480,122.0,4.3,80.0,99.0,'11111222,11111222,11144222' 
ADCP,ioos:station:wmo:42362:1,2012-11-09T06:30:00Z,27.7950,-90.6480,122.0,4.1,81.0,99.0,'11111222,11111222,11144222' 
ADCP,ioos:station:wmo:42362:1,2012-11-09T07:30:00Z,27.7950,-90.6480,122.0,4.4,87.0,99.0,'11111222,11111222,11144222' 
ADCP,ioos:station:wmo:42362:1,2012-11-09T08:30:00Z,27.7950,-90.6480,122.0,4.2,92.0,99.0,'11111222,11111222,11144222' 